GSAT0213 (GALILEO 17)

Last updated on Thu Oct 30 2025 00:02:35 GMT+0000 (Coordinated Universal Time)

1 41861U 16069C 25302.43959905 .00000071 00000+0 00000+0 0 9994 2 41861 55.3544 107.4797 0001517 296.4500 63.5558 1.70474710 55589
UTC large
Height (km)
Speed (km/s)
/
Latitude / Longitude
Inclination (degrees)
Orbital Period (minutes)
Azimuth
Elevation
Range (km)
Doppler Factor

Next 0 passes for location: London (51.5072 / 0.1276)

Sorry there are no passes over London.